Back to catalog

ATLAS 5 CENTAUR DEB

AliveHEO
NORAD 52971·DEBRIS·🇺🇸 United States

Launched Oct 17, 2018 from Cape Canaveral Space Force Station

Loading…

Next Passes (next 24 hours)

TLE

AgingSource: Space-Track

Epoch: Aug 24, 2026, 19:27 UTC

1 52971U 18079GV  26236.81089769 -.00000187  00000-0  00000+0 0  9992
2 52971  13.1709  31.1138 4771705 332.4625   8.6560  1.82283214 32113

Track ATLAS 5 CENTAUR DEB in real time with AllMySat

Download on the App Store